Location: La Sioule Rivi�re
(46.3664°N, 3.3197°E)
Time: 12:05:05
(UTC+00:00)

Cosmos 1408 - Pass Details

Date: 29 October 2020
Orbit: 470 x 492 km, 82.6° (Epoch: 23 November)

Event Time Altitude Azimuth Distance (km) Brightness Sun altitude
Rises 18:13:00 0° 351° (N) 2,557 6.3 -17.2°
Reaches altitude 10° 18:15:07 10° 351° (N) 1,676 5.4 -17.6°
Maximum altitude 18:18:47 90° 292° (WNW) 493 2.5 -18.2°
Drops below altitude 10° 18:22:27 10° 173° (S) 1,673 5.2 -18.9°
Sets 18:24:33 0° 173° (S) 2,552 6.2 -19.2°
